Location: Riverside Cemetery
(38.3047°N, 99.7773°W)
Time: 01:12:47
(UTC+00:00)

USA 238 - Pass Details

Date: 19 September 2020
Orbit: 1006 x 1206 km, 63.4° (Epoch: 15 October)

Event Time Altitude Azimuth Distance (km) Brightness Sun altitude
Rises 02:44:17 0° 329° (NNW) 3,962 7.5 -24.3°
Reaches altitude 10° 02:46:59 10° 333° (NNW) 3,029 6.7 -24.8°
Maximum altitude 02:54:11 62° 53° (NE) 1,311 3.9 -26.1°
Enters shadow 02:55:32 53° 96° (E) 1,414 3.9 -26.3°
